CW7410 Weather Reports


Display with metric or nautical units.
time (UTC)temp
F
wind
direction
speed
MPH
gust
MPH
rain 1hr
in
rain 24hr
in
rain mn
in
humidity
%
barometer
mb
20260905001608 85 157 11.0 23.0 0.00 0.00 0.00 27 1010.2
20260905000106 85 175 12.0 24.0 0.00 0.00 0.00 27 1010.2
20260904234608 85 172 9.0 26.0 0.00 0.00 0.00 27 1010.2
20260904233059 85 188 11.0 26.0 0.00 0.00 0.00 26 1010.2
20260904231557 86 166 11.0 21.0 0.00 0.00 0.00 27 1010.4
20260904230058 86 183 15.0 30.0 0.00 0.00 0.00 27 1010.4
20260904224556 86 175 9.0 20.0 0.00 0.00 0.00 29 1010.6
20260904223100 86 182 11.0 23.0 0.00 0.00 0.00 27 1010.8
20260904221605 86 179 10.0 20.0 0.00 0.00 0.00 28 1011.0
20260904220110 85 192 9.0 19.0 0.00 0.00 0.00 27 1011.0
20260904214556 85 176 13.0 25.0 0.00 0.00 0.00 26 1011.1
20260904213104 85 134 13.0 29.0 0.00 0.00 0.00 26 1011.1
20260904211603 85 165 15.0 29.0 0.00 0.00 0.00 28 1011.1
20260904204557 85 165 9.0 24.0 0.00 0.00 0.00 29 1011.4
20260904203100 84 164 14.0 22.0 0.00 0.00 0.00 28 1011.7
20260904201558 84 161 14.0 27.0 0.00 0.00 0.00 28 1011.7
20260904200127 84 177 13.0 25.0 0.00 0.00 0.00 30 1011.8
20260904194635 83 175 15.0 37.0 0.00 0.00 0.00 30 1012.0
20260904193100 83 131 12.0 34.0 0.00 0.00 0.00 30 1012.2
20260904191614 82 153 15.0 27.0 0.00 0.00 0.00 31 1012.3
20260904184608 82 142 18.0 29.0 0.00 0.00 0.00 32 1012.7
20260904183057 82 178 15.0 35.0 0.00 0.00 0.00 33 1013.1
20260904181603 82 141 15.0 26.0 0.00 0.00 0.00 33 1013.1
20260904180107 81 141 15.0 33.0 0.00 0.00 0.00 32 1013.1
20260904174558 81 203 13.0 29.0 0.00 0.00 0.00 34 1013.3
20260904173112 80 151 14.0 28.0 0.00 0.00 0.00 32 1013.3
20260904171605 79 176 16.0 30.0 0.00 0.00 0.00 32 1013.2
20260904170057 79 127 19.0 29.0 0.00 0.00 0.00 34 1013.4
20260904164600 79 142 14.0 25.0 0.00 0.00 0.00 35 1013.2
20260904163104 78 160 14.0 26.0 0.00 0.00 0.00 35 1013.2
20260904161600 77 132 9.0 28.0 0.00 0.00 0.00 38 1013.1
20260904160101 77 156 10.0 21.0 0.00 0.00 0.00 38 1013.1
20260904154614 76 178 8.0 18.0 0.00 0.00 0.00 39 1013.0
20260904153103 74 106 11.0 18.0 0.00 0.00 0.00 38 1013.0
20260904151611 73 360 9.0 15.0 0.00 0.00 0.00 41 1013.1
20260904150057 71 360 8.0 15.0 0.00 0.00 0.00 43 1013.0
20260904144557 69 360 5.0 13.0 0.00 0.00 0.00 44 1012.9
20260904143103 65 116 7.0 14.0 0.00 0.00 0.00 49 1012.8
20260904141623 60 360 5.0 10.0 0.00 0.00 0.00 52 1012.6
20260904140108 57 93 5.0 9.0 0.00 0.00 0.00 54 1012.4
20260904134601 56 92 3.0 7.0 0.00 0.00 0.00 51 1012.2
20260904133113 56 75 1.0 7.0 0.00 0.00 0.00 49 1012.0
20260904131613 57 113 4.0 7.0 0.00 0.00 0.00 48 1011.8
20260904130056 58 0 0.0 4.0 0.00 0.00 0.00 47 1011.7
20260904124558 60 90 5.0 9.0 0.00 0.00 0.00 42 1011.3
20260904123118 61 107 6.0 9.0 0.00 0.00 0.00 41 1011.2
20260904121602 61 117 5.0 13.0 0.00 0.00 0.00 38 1011.0
20260904120057 62 106 7.0 13.0 0.00 0.00 0.00 38 1010.8
20260904114559 63 104 8.0 14.0 0.00 0.00 0.00 36 1010.7
20260904113102 64 100 8.0 15.0 0.00 0.00 0.00 36 1010.7
20260904111558 64 100 10.0 15.0 0.00 0.00 0.00 35 1010.7
20260904110058 64 136 8.0 18.0 0.00 0.00 0.00 34 1010.6
20260904104602 64 80 11.0 17.0 0.00 0.00 0.00 34 1010.4
20260904103057 63 126 13.0 25.0 0.00 0.00 0.00 35 1010.2
20260904101559 63 124 5.0 13.0 0.00 0.00 0.00 37 1010.0
20260904100104 66 86 5.0 9.0 0.00 0.00 0.00 36 1009.8
20260904094602 67 121 7.0 17.0 0.00 0.00 0.00 33 1009.6
20260904093100 67 162 8.0 16.0 0.00 0.00 0.00 32 1009.4
20260904091602 66 182 10.0 22.0 0.00 0.00 0.00 33 1009.3
20260904090100 67 146 10.0 18.0 0.00 0.00 0.00 33 1009.3
20260904084559 67 136 8.0 17.0 0.00 0.00 0.00 34 1009.2
20260904083102 68 160 9.0 19.0 0.00 0.00 0.00 32 1009.2
20260904081601 68 186 9.0 18.0 0.00 0.00 0.00 32 1009.2
20260904080107 68 159 8.0 15.0 0.00 0.00 0.00 33 1009.2
20260904074558 67 156 7.0 15.0 0.00 0.00 0.00 33 1009.3
20260904073056 67 146 7.0 14.0 0.00 0.00 0.00 34 1009.2
20260904071602 67 184 6.0 14.0 0.00 0.00 0.00 36 1009.2
20260904070100 68 141 8.0 14.0 0.00 0.00 0.00 35 1009.1
20260904064620 68 137 7.0 15.0 0.00 0.00 0.00 36 1009.1
20260904063057 67 136 10.0 19.0 0.00 0.00 0.00 35 1009.0
20260904061558 67 138 10.0 16.0 0.00 0.00 0.00 36 1008.9
20260904060105 65 142 7.0 14.0 0.00 0.00 0.00 39 1008.8
20260904054602 64 167 5.0 11.0 0.00 0.00 0.00 43 1008.8
20260904053104 64 148 5.0 9.0 0.00 0.00 0.00 42 1008.7
20260904051559 63 158 4.0 11.0 0.00 0.00 0.00 44 1008.7
20260904050137 63 126 5.0 16.0 0.00 0.00 0.00 44 1008.7
20260904044601 60 129 6.0 13.0 0.00 0.00 0.00 49 1008.8
20260904043101 59 82 4.0 6.0 0.00 0.00 0.00 50 1008.8
20260904041608 60 106 5.0 9.0 0.00 0.00 0.00 53 1008.9
20260904040105 60 84 3.0 6.0 0.00 0.00 0.00 55 1008.8
20260904034608 62 0 0.0 3.0 0.00 0.00 0.00 55 1008.7
20260904033055 63 38 1.0 3.0 0.00 0.00 0.00 53 1008.7
20260904031556 63 40 2.0 8.0 0.00 0.00 0.00 51 1008.8
20260904030059 64 345 1.0 5.0 0.00 0.00 0.00 49 1008.6
20260904024606 65 360 2.0 6.0 0.00 0.00 0.00 46 1008.7
20260904023100 67 360 4.0 6.0 0.00 0.00 0.00 48 1008.7
20260904021554 69 360 3.0 7.0 0.00 0.00 0.00 45 1008.7
20260904020059 71 17 1.0 3.0 0.00 0.00 0.00 47 1008.7
20260904014613 74 63 1.0 3.0 0.00 0.00 0.00 46 1008.7
20260904013057 76 0 0.0 2.0 0.00 0.00 0.00 42 1008.7
20260904011608 77 69 0.0 3.0 0.00 0.00 0.00 40 1008.8
20260904010056 77 0 0.0 5.0 0.00 0.00 0.00 29 1009.0
20260904004601 77 345 2.0 4.0 0.00 0.00 0.00 34 1009.1
20260904003102 78 0 0.0 2.0 0.00 0.00 0.00 43 1009.2